CAPE
78 611 1032 1290 63 105 0 0 130 192 187 203 167 80 28 11 0 0 10 6 18 55 216 940 820 978 1139 930 1235 1154 1136 1273 1282 1112 1486 1393 1363 1341 1263 1352 975 981 1057 1114 1062 930 1191 1248 983
209 836 1345 1220 120 54 91 174 196 286 307 98 50 8 8 16 5 7 8 13 10 25 91 713 952 1164 821 570 679 907 1232 1280 1349 1223 1208 1020 853 751 958 1135 1220 1267 866 819 944 1230 1346 1183 979
90 421 1140 976 424 26 47 77 62 327 337 241 170 38 8 24 19 25 17 22 14 9 105 343 922 825 845 1108 911 941 1140 1332 1336 983 541 1285 720 960 647 651 603 761 1282 1445 1349 1285 1088 771 551
522 1040 1407 630 75 92 130 146 271 238 233 119 5 1 4 12 24 8 22 20 5 42 239 413 921 1278 1142 988 1135 1213 526 403 190 305 1210 1029 741 1399 1404 1199 1149 1264 1237 1110 1043 934 900 751 523
231 1308 943 202 0 0 120 237 198 256 236 82 17 24 23 14 16 34 18 2 29 121 206 571 1085 1045 1164 1096 1005 1125 224 1208 1168 1024 899 1174 1214 1281 1290 1339 1359 1320 1101 998 887 786 579 508 388
652 421 383 156 9 19 178 317 287 183 82 32 2 2 14 8 15 16 5 5 100 183 593 831 994 1108 1218 861 997 591 408 1389 1414 1298 1233 1339 963 915 1187 1124 969 953 887 873 706 546 469 507 312
591 179 126 15 92 230 229 245 269 302 227 39 1 8 14 18 5 18 33 39 56 341 526 542 871 1169 737 1193 747 463 366 1190 1164 943 819 1091 1079 645 614 579 573 505 469 522 542 521 414 445 600
104 49 71 11 158 273 205 199 299 271 185 99 22 5 5 5 2 6 34 27 176 339 438 573 830 803 769 951 1222 1235 1287 746 664 636 885 968 763 1070 901 553 361 374 371 251 292 399 600 678 488
112 59 41 0 0 360 335 345 343 340 350 284 139 3 0 0 0 0 0 33 183 172 177 206 482 806 797 554 527 1024 852 928 574 456 543 666 604 764 1013 568 705 95 112 132 601 520 118 160 163
0 20 2 6 24 53 220 234 387 345 293 151 72 41 0 0 0 0 0 8 6 34 161 348 478 689 146 124 91 100 472 315 396 315 264 286 727 856 981 579 513 488 880 962 484 214 52 37 151
1 0 2 4 34 54 43 441 390 368 306 128 57 34 1 0 0 0 0 0 7 44 134 335 561 513 403 451 533 335 485 743 576 182 413 980 1132 887 664 236 9 720 1168 1266 821 5 0 5 63
0 0 2 26 56 90 426 631 664 587 453 190 121 25 0 0 0 0 0 0 0 5 7 17 264 207 356 77 84 109 349 53 535 686 1168 1149 1124 914 766 631 762 969 1330 1049 504 86 61 43 387
0 0 0 11 68 137 292 549 695 542 374 274 202 55 6 1 0 0 0 0 0 0 0 0 217 66 186 0 0 67 239 250 155 1046 1473 1303 1043 787 1011 1142 1279 1304 895 1026 723 212 230 336 653
0 0 0 17 85 176 278 348 612 440 355 266 236 178 147 45 0 0 0 0 0 0 0 0 168 92 221 153 0 105 346 645 813 1409 1318 1462 1476 1509 1293 1117 233 368 1075 1356 908 861 919 877 1115
47 0 0 2 24 228 397 353 604 468 375 251 180 152 103 39 32 3 0 0 0 0 0 0 154 10 12 777 347 415 327 426 352 1314 785 1125 1011 1406 1463 643 69 0 910 1309 1172 1192 1303 1449 949
32 26 27 16 40 211 260 382 591 559 528 368 255 275 181 117 112 14 2 0 0 0 0 245 85 0 10 353 78 84 475 190 225 369 759 998 1005 1676 1318 841 263 9 167 1221 774 1114 943 819 637
0 19 7 33 38 49 106 467 580 585 589 497 344 285 268 218 148 109 75 1 0 0 0 42 7 0 12 5 0 287 353 240 106 160 174 630 1169 1658 1550 1547 1032 541 754 1218 1209 1204 1182 669 434
4 1 0 0 46 50 94 250 599 595 610 593 519 421 315 257 168 167 86 7 17 24 1 0 22 0 0 0 4 347 361 316 136 170 114 176 181 1049 1564 1702 1597 1720 1362 1108 785 1092 1254 487 301
0 0 15 7 20 63 86 196 312 430 554 612 551 454 352 252 233 261 102 23 7 5 0 0 0 0 5 0 0 0 0 1 11 48 245 144 380 749 1887 1683 1408 1675 1468 1262 1061 1428 1240 536 1447
0 0 0 1 9 8 11 77 178 304 406 435 480 420 389 305 314 273 213 82 41 0 0 0 6 0 147 108 104 97 333 322 641 422 293 296 411 616 1589 1781 1554 2023 1483 1215 1287 839 334 476 625
0 0 0 10 33 8 99 15 44 23 103 222 351 313 263 291 274 366 295 288 168 57 148 155 7 55 11 50 160 379 522 279 74 49 41 22 283 527 1722 1584 2009 2196 1887 1905 1987 1283 1298 1162 1163
0 0 4 13 22 0 145 91 0 0 0 17 119 133 161 241 359 464 348 261 228 194 64 205 95 88 384 257 260 276 166 224 4 8 255 641 958 926 1738 1971 1302 1949 2223 2007 1636 1905 1943 1761 1348
0 0 16 0 0 0 0 107 134 0 0 0 0 0 18 234 247 287 476 491 364 291 216 273 132 195 322 419 320 235 648 663 473 661 444 219 1100 1487 1621 430 0 339 1133 1593 1456 1615 1547 1239 1250
8 0 0 0 0 0 0 1 104 13 0 0 0 0 0 118 263 334 297 392 445 523 565 350 236 214 192 423 383 274 74 195 883 573 734 1080 1218 1456 1373 409 67 12 8 988 1276 1492 1768 1565 1367
3 0 0 0 0 0 0 0 11 37 0 0 0 0 0 0 115 299 379 443 395 384 633 778 817 686 736 762 1056 876 875 1197 1499 1293 701 776 1134 1196 1683 617 635 488 487 1359 1685 1650 1452 1261 1067
0 0 0 0 0 0 0 0 0 2 1 0 0 0 0 0 2 106 225 339 380 438 503 867 1106 1188 1376 1381 1320 1938 1727 1252 1205 1494 1412 1067 921 1433 1284 1316 1246 1199 1585 1511 1228 1145 1100 1013 869
0 0 0 0 0 0 0 31 13 0 0 0 0 0 0 0 0 25 119 192 212 254 406 577 981 1127 1298 1434 1539 1545 1948 1738 1364 1098 1031 931 1237 1807 2295 1763 1521 1390 1336 1201 1065 938 821 856 816
0 0 0 0 0 0 0 1 0 0 0 0 0 0 0 0 4 30 121 189 233 203 328 493 944 991 1167 1286 1392 1357 1602 1851 1635 1426 1838 2260 2257 2229 1871 1672 1266 1071 1101 1062 949 581 157 1 0
0 0 0 0 0 0 0 0 0 0 0 0 0 0 0 0 0 17 159 187 276 229 280 451 929 1099 1243 1295 1416 1454 1511 1576 1740 1934 2148 2787 2276 1970 1575 1181 854 770 587 134 7 0 0 0 0
0 0 0 0 0 0 0 0 0 0 0 0 0 0 0 0 0 9 122 261 340 306 317 377 953 1179 1355 1412 1568 1817 2032 2164 2364 2656 2907 2403 2031 1706 1196 751 500 86 0 0 0 0 0 0 0
CIN
-360 -227 -120 -32 -57 -27 -3 -0 -38 -9 -48 -29 -44 -63 -128 -145 -0 -0 -74 -26 -34 -26 -27 -0 -1 -0 -0 -1 -0 -0 -0 -0 -0 -0 -0 -0 -0 -0 -0 -0 -0 -0 -0 -0 -1 -5 -6 -9 -24
-351 -218 -101 -24 -15 -27 -8 -61 -11 -24 -28 -54 -59 -98 -111 -106 -147 -19 -78 -54 -76 -65 -32 -2 -2 -1 -2 -6 -4 -0 -0 -0 -0 -0 -0 -0 -0 -1 -0 -0 -0 -0 -2 -4 -1 -0 -3 -18 -28
-380 -194 -53 -30 -29 -26 -22 -15 -24 -3 -11 -32 -51 -66 -83 -100 -103 -85 -82 -99 -96 -87 -36 -11 -1 -3 -2 -0 -1 -1 -0 -0 -0 -1 -9 -0 -4 -0 -5 -1 -2 -3 -0 -0 -0 -1 -11 -35 -49
-239 -155 -57 -33 -24 -25 -30 -15 -7 -38 -31 -41 -98 -0 -36 -27 -60 -124 -110 -124 -135 -75 -7 -3 -3 -0 -0 -0 -0 -0 -8 -22 -51 -22 -0 -1 -5 -0 -0 -0 -0 -0 -1 -3 -11 -22 -33 -44 -60
-337 -58 -21 -13 -0 -1 -22 -23 -34 -57 -72 -59 -23 -27 -36 -11 -59 -96 -145 -217 -150 -41 -23 -3 -0 -3 -0 -0 -1 -0 -41 -0 -2 -2 -7 -2 -1 -0 -0 -0 -0 -0 -8 -16 -26 -36 -58 -71 -73
-62 -107 -42 -24 -21 -13 -30 -51 -88 -107 -89 -80 -0 -0 -0 -12 -65 -98 -154 -179 -61 -18 -3 -2 -0 -0 -0 -2 -1 -9 -15 -0 -0 -0 -3 -0 -14 -12 -3 -7 -15 -16 -29 -29 -45 -57 -71 -74 -85
-74 -106 -50 -29 -9 -12 -38 -42 -67 -75 -43 -16 -0 -0 -0 -3 -33 -66 -62 -44 -27 -5 -2 -4 -3 -0 -4 -1 -6 -26 -28 -1 -5 -12 -28 -22 -28 -49 -45 -48 -50 -54 -55 -52 -62 -68 -82 -85 -78
-105 -96 -8 -31 -27 -12 -20 -32 -30 -50 -56 -69 -101 -1 -0 -25 -56 -72 -31 -54 -12 -4 -8 -6 -6 -9 -10 -8 -2 -8 -5 -22 -24 -35 -24 -11 -30 -24 -35 -50 -63 -71 -70 -75 -71 -55 -42 -58 -76
-31 -57 -15 -6 -0 -11 -44 -48 -47 -42 -54 -35 -56 -8 -0 -0 -0 -0 -0 -39 -16 -24 -40 -30 -10 -4 -16 -27 -43 -15 -32 -15 -26 -68 -68 -46 -43 -42 -40 -52 -58 -108 -105 -83 -42 -98 -171 -147 -120
-0 -37 -4 -56 -109 -115 -56 -80 -71 -97 -88 -104 -116 -89 -3 -0 -0 -0 -0 -82 -93 -70 -24 -23 -22 -8 -43 -62 -77 -72 -31 -59 -102 -111 -138 -120 -93 -40 -30 -84 -104 -98 -58 -37 -136 -128 -125 -228 -164
-7 -0 -47 -155 -137 -156 -180 -75 -79 -86 -93 -150 -171 -158 -5 -0 -0 -0 -10 -1 -159 -85 -57 -31 -12 -11 -14 -27 -41 -75 -77 -48 -77 -140 -72 -45 -21 -27 -62 -71 -21 -77 -42 -19 -82 -20 -2 -151 -201
-0 -0 -173 -179 -168 -132 -31 -18 -15 -40 -87 -121 -112 -198 -0 -0 -0 -0 -0 -0 -42 -144 -110 -56 -36 -64 -77 -159 -117 -114 -123 -120 -62 -53 -22 -9 -16 -50 -55 -61 -65 -46 -29 -20 -68 -113 -113 -135 -116
-0 -0 -0 -219 -166 -140 -82 -66 -94 -86 -83 -84 -67 -126 -130 -6 -0 -0 -0 -0 -0 -0 -0 -0 -59 -101 -120 -0 -29 -169 -99 -84 -123 -44 -21 -17 -25 -34 -30 -27 -27 -25 -15 -36 -59 -91 -100 -77 -60
-1 -0 -0 -200 -166 -148 -142 -124 -114 -104 -103 -108 -78 -74 -67 -98 -0 -0 -0 -0 -0 -0 -0 -0 -54 -73 -88 -103 -0 -116 -84 -53 -42 -27 -22 -18 -16 -13 -16 -36 -128 -92 -39 -20 -23 -48 -42 -33 -24
-36 -0 -0 -123 -175 -174 -158 -153 -108 -138 -129 -143 -149 -114 -109 -157 -143 -241 -0 -0 -0 -0 -0 -0 -34 -84 -73 -32 -64 -79 -83 -29 -12 -13 -19 -19 -27 -13 -10 -86 -128 -0 -56 -13 -21 -26 -21 -20 -20
-40 -99 -96 -160 -110 -139 -162 -148 -106 -117 -127 -144 -158 -118 -129 -155 -127 -282 -26 -0 -0 -0 -0 -40 -82 -0 -81 -55 -89 -90 -57 -57 -30 -25 -22 -17 -19 -15 -11 -48 -90 -27 -103 -21 -28 -23 -14 -18 -24
-6 -42 -114 -80 -63 -84 -159 -151 -181 -175 -152 -140 -166 -165 -154 -160 -173 -186 -211 -20 -0 -65 -25 -76 -27 -0 -57 -43 -0 -67 -66 -49 -49 -53 -54 -17 -18 -16 -14 -16 -35 -57 -49 -18 -19 -21 -17 -23 -44
-75 -39 -0 -0 -36 -46 -78 -124 -198 -206 -178 -161 -152 -154 -169 -174 -220 -195 -231 -313 -269 -217 -51 -0 -76 -0 -0 -0 -8 -64 -56 -60 -72 -73 -67 -41 -39 -22 -21 -10 -15 -15 -14 -19 -43 -33 -37 -76 -86
-0 -22 -138 -48 -71 -55 -120 -145 -217 -234 -227 -187 -178 -180 -189 -224 -231 -181 -254 -321 -338 -149 -0 -0 -0 -0 -180 -0 -0 -0 -0 -19 -130 -121 -63 -58 -37 -27 -7 -18 -23 -18 -14 -22 -34 -42 -56 -71 -55
-0 -0 -0 -47 -107 -60 -81 -175 -182 -189 -222 -212 -192 -184 -195 -201 -195 -191 -233 -298 -303 -0 -0 -0 -195 -0 -91 -126 -147 -145 -109 -111 -74 -66 -63 -54 -56 -47 -20 -21 -22 -21 -28 -41 -50 -67 -102 -93 -68
-0 -0 -0 -62 -57 -36 -62 -144 -155 -83 -204 -184 -187 -214 -217 -199 -211 -215 -236 -229 -255 -311 -247 -235 -315 -208 -124 -206 -171 -144 -122 -155 -158 -129 -109 -117 -90 -66 -29 -27 -17 -15 -28 -21 -32 -57 -49 -43 -55
-0 -0 -51 -58 -51 -0 -50 -56 -0 -0 -0 -210 -193 -222 -231 -223 -208 -216 -225 -258 -292 -289 -355 -262 -287 -261 -178 -202 -210 -204 -207 -182 -135 -164 -113 -88 -63 -37 -31 -23 -116 -30 -14 -24 -21 -16 -21 -12 -22
-0 -0 -50 -0 -0 -0 -0 -27 -49 -0 -0 -0 -0 -0 -233 -217 -217 -209 -224 -252 -280 -274 -316 -283 -321 -291 -254 -240 -248 -239 -182 -166 -168 -109 -101 -111 -32 -25 -37 -142 -0 -148 -104 -55 -33 -7 -22 -26 -21
-29 -0 -7 -0 -0 -0 -0 -11 -69 -102 -0 -0 -0 -0 -0 -247 -220 -226 -255 -248 -237 -231 -240 -287 -330 -336 -349 -300 -301 -297 -331 -260 -145 -145 -96 -47 -39 -26 -60 -126 -103 -72 -132 -98 -73 -17 -21 -39 -49
-25 -0 -0 -0 -0 -0 -0 -0 -29 -98 -0 -0 -0 -0 -0 -0 -254 -233 -245 -251 -279 -264 -258 -264 -276 -308 -307 -294 -237 -252 -230 -161 -119 -118 -141 -87 -37 -26 -47 -107 -134 -181 -172 -69 -36 -17 -46 -56 -56
-0 -0 -0 -0 -0 -0 -0 -0 -0 -38 -61 -0 -0 -0 -0 -0 -40 -277 -264 -280 -312 -293 -302 -282 -284 -283 -273 -261 -244 -150 -160 -214 -195 -124 -97 -84 -59 -28 -29 -52 -80 -85 -25 -39 -47 -58 -62 -48 -27
-0 -0 -0 -0 -0 -0 -7 -15 -36 -0 -0 -0 -0 -0 -0 -0 -0 -309 -297 -293 -321 -322 -304 -328 -319 -322 -308 -282 -246 -229 -163 -174 -201 -196 -164 -132 -61 -23 -11 -38 -58 -52 -42 -47 -60 -63 -54 -20 -13
-0 -0 -0 -0 -0 -0 -0 -16 -0 -0 -0 -0 -0 -0 -0 -0 -314 -280 -293 -318 -333 -339 -344 -342 -343 -341 -326 -309 -292 -293 -241 -181 -175 -171 -90 -27 -11 -20 -42 -54 -72 -78 -68 -72 -73 -113 -306 -186 -0
-0 -0 -0 -0 -0 -0 -0 -0 -0 -0 -0 -0 -0 -0 -0 -0 -11 -269 -243 -265 -305 -317 -340 -342 -360 -340 -326 -318 -310 -298 -269 -226 -179 -121 -69 -7 -34 -46 -59 -117 -168 -163 -215 -446 -172 -0 -0 -0 -0
-0 -0 -0 -0 -0 -0 -0 -0 -0 -0 -0 -0 -0 -0 -0 -0 -0 -260 -223 -274 -280 -279 -313 -328 -347 -347 -323 -327 -308 -273 -216 -170 -123 -61 -16 -56 -93 -132 -193 -293 -346 -493 -0 -0 -0 -0 -0 -0 -0
Wind_Speed
21 21 21 7 13 8 7 18 18 21 18 18 15 19 17 4 11 13 7 7 9 14 13 9 7 6 1 1 2 3 4 6 7 9 12 15 15 19 23 25 26 26 27 27 28 28 28 27 26
20 19 17 18 5 7 11 22 22 21 24 25 22 19 11 14 12 19 5 4 5 12 15 11 4 3 2 2 3 4 6 8 10 11 11 15 15 17 20 23 24 25 25 26 26 26 26 26 24
15 14 12 17 21 22 19 24 24 24 22 19 19 14 15 18 6 16 20 16 14 14 16 15 2 3 3 4 4 6 9 12 13 14 14 15 19 21 23 23 23 24 24 24 24 24 23 23 21
17 10 12 10 22 22 23 24 24 21 19 16 20 15 14 3 24 23 15 13 20 23 18 14 4 4 4 4 6 8 9 11 12 14 16 18 20 19 20 21 22 21 21 22 22 22 22 21 20
13 15 10 8 17 21 20 21 21 18 18 19 18 17 11 4 20 20 18 26 14 29 22 12 3 3 4 5 7 9 11 11 14 14 15 17 19 19 19 19 20 19 20 20 20 19 19 19 19
14 17 13 12 18 22 21 21 21 21 20 20 18 17 12 23 22 15 11 16 27 28 25 8 3 4 7 6 9 11 12 11 12 13 14 17 18 17 17 19 19 18 19 18 17 17 16 16 15
10 6 11 15 18 20 23 25 22 23 22 16 19 14 18 18 21 20 15 10 17 27 24 25 14 4 6 7 11 9 10 10 9 10 12 16 18 19 19 19 18 17 16 16 15 14 13 12 11
8 10 7 21 22 21 23 24 25 24 23 22 22 17 20 23 22 17 15 15 5 12 16 21 27 25 22 10 11 9 10 10 10 10 10 14 17 18 19 17 17 16 16 15 14 14 21 20 14
10 12 6 20 21 26 28 27 27 26 25 17 15 21 23 26 21 17 16 12 9 11 8 26 26 24 22 19 11 12 11 10 10 11 14 11 14 16 16 16 15 15 15 15 17 20 22 23 23
15 15 3 22 24 24 24 24 26 25 23 21 22 24 24 23 20 20 18 15 14 17 28 27 22 24 22 20 19 21 9 14 11 12 10 13 16 14 13 15 15 12 12 13 15 16 17 23 22
16 16 8 17 16 18 21 24 24 23 21 22 26 27 26 23 20 22 19 21 19 24 21 19 25 5 3 8 16 12 18 19 16 16 18 13 14 15 15 13 11 12 9 11 12 8 10 15 9
5 17 16 19 21 23 24 26 22 21 23 24 26 27 26 25 25 24 23 26 26 25 28 26 24 5 5 8 19 20 21 18 20 19 17 18 18 19 17 12 9 9 10 12 12 11 11 11 9
13 14 17 19 21 21 22 23 23 23 24 26 27 26 27 28 27 27 25 26 29 27 28 27 24 23 15 13 21 23 21 20 18 18 16 16 14 13 11 11 11 3 12 10 12 10 10 9 8
10 13 14 21 21 22 25 24 24 25 26 27 27 27 29 29 30 28 28 30 31 29 29 27 24 25 26 23 23 22 21 18 18 18 16 16 15 13 11 12 16 16 12 13 12 11 9 7 7
10 14 16 17 20 21 26 25 24 25 26 26 27 27 28 29 28 28 29 30 32 31 30 29 27 26 26 24 24 22 19 16 18 17 14 14 13 12 12 14 11 12 12 8 9 8 7 8 7
15 13 7 13 16 20 16 20 23 24 25 26 27 28 28 29 29 29 29 31 32 31 31 30 27 26 26 24 24 21 17 17 15 13 12 12 13 18 15 14 8 12 10 7 9 8 7 11 10
19 18 14 17 15 21 7 21 22 24 25 27 27 28 28 28 29 29 29 30 31 32 31 30 27 26 24 23 23 20 18 17 15 11 12 15 20 23 22 10 9 7 10 12 11 10 13 12 9
18 22 22 24 10 18 22 21 25 25 25 24 26 27 28 28 28 29 29 30 31 31 31 29 27 24 24 24 23 20 18 16 14 12 10 13 13 10 11 16 25 12 12 13 15 12 11 11 10
26 19 24 25 23 25 22 22 25 26 24 24 24 25 27 27 28 28 29 30 32 32 31 30 29 26 26 26 24 20 18 16 13 10 8 11 11 11 12 13 14 20 23 16 14 13 13 11 19
26 23 28 25 25 29 23 23 25 25 24 22 24 24 26 27 27 29 30 31 31 32 32 30 29 28 26 25 23 19 16 14 13 11 10 9 9 11 11 13 10 12 13 15 14 12 14 14 17
29 25 27 26 22 29 13 27 24 24 22 23 24 25 27 26 26 29 31 31 32 32 30 31 29 26 26 24 21 18 16 13 12 10 8 7 6 9 10 11 11 9 12 17 19 13 12 11 13
28 22 26 30 27 22 23 26 27 25 24 25 25 26 27 27 29 32 31 32 33 31 31 28 27 26 24 23 20 18 16 13 11 10 9 5 10 9 8 18 11 13 15 14 12 10 13 13 11
27 31 26 5 27 25 31 20 27 27 25 25 25 27 28 29 30 32 32 33 31 30 29 27 26 24 23 22 20 18 15 13 11 9 7 6 8 9 14 13 22 15 15 12 5 7 10 18 23
29 27 27 23 24 26 30 26 25 28 25 25 26 27 28 29 30 29 30 31 29 28 27 26 25 23 23 21 19 17 15 13 10 8 8 9 9 8 11 9 15 14 8 10 12 12 18 25 29
30 25 27 23 26 27 27 32 26 26 24 24 27 27 27 27 28 29 30 30 29 29 26 25 24 23 22 20 17 16 14 12 10 8 7 7 9 12 13 12 13 9 11 12 15 19 22 27 29
38 36 28 23 29 28 24 27 28 22 23 24 26 28 27 26 26 29 30 29 29 28 26 24 23 21 20 19 17 15 14 12 10 7 7 7 7 10 12 12 12 11 11 19 22 24 27 28 28
37 46 37 33 30 26 22 18 5 19 21 22 25 25 26 26 26 27 29 29 28 26 25 23 21 19 18 16 15 14 12 10 8 6 5 5 6 8 17 18 20 21 22 25 27 28 28 28 30
38 34 41 34 30 29 25 23 3 19 20 18 23 25 25 26 27 26 27 26 25 24 22 20 19 17 15 14 13 12 10 9 7 6 6 9 12 17 20 21 23 24 26 27 27 28 31 32 33
36 45 37 34 31 31 28 24 29 14 15 17 19 23 23 26 26 25 24 23 23 21 20 19 17 15 13 12 11 11 9 7 6 5 6 10 16 18 20 22 25 26 28 29 30 31 33 34 34
30 43 39 34 37 32 25 30 33 15 20 16 11 19 24 24 25 23 21 21 21 21 19 18 16 14 13 12 11 10 8 8 7 7 11 14 16 17 19 22 25 27 29 31 32 32 33 34 35
Wind_Direction
132 131 125 294 333 291 337 146 155 60 28 47 39 67 61 314 226 74 194 203 201 190 193 199 203 201 218 352 316 323 344 2 1 13 21 33 34 47 60 70 80 81 83 83 81 85 88 90 101
154 145 135 69 15 357 2 84 86 54 72 68 51 56 20 32 30 86 99 193 208 196 191 197 209 217 255 296 303 331 358 3 11 17 14 31 32 39 54 68 71 73 74 83 79 81 87 97 102
167 194 232 17 45 38 37 83 75 75 69 55 53 21 34 65 195 192 185 186 194 194 190 194 256 256 258 323 329 0 15 25 25 26 28 31 44 57 66 69 68 72 70 75 76 83 103 101 113
129 197 241 285 28 33 46 65 70 55 38 23 58 35 40 324 170 150 95 187 167 171 191 200 251 250 280 308 355 1 6 13 21 30 34 47 55 48 57 59 63 61 60 71 78 86 94 98 106
147 80 215 338 355 40 36 72 62 40 37 45 56 62 30 19 86 94 97 106 86 129 121 210 270 334 340 338 5 7 16 13 34 31 34 45 49 51 49 50 50 49 55 70 84 94 98 95 94
304 4 274 294 6 48 48 58 54 50 56 60 54 66 44 92 93 94 104 89 153 122 108 70 282 3 20 353 10 14 17 4 27 30 33 44 50 42 42 55 56 66 75 93 102 98 116 114 103
162 200 81 32 13 45 61 72 60 64 65 48 78 54 84 92 97 99 93 79 90 135 112 117 77 354 4 359 20 4 11 7 0 3 21 44 51 61 64 76 62 83 82 69 78 84 130 170 160
189 254 326 45 51 55 75 60 69 73 79 82 88 83 106 114 105 94 91 90 55 66 81 101 135 121 98 25 27 3 17 14 5 352 356 33 55 65 75 79 73 79 60 65 64 47 310 287 222
156 191 261 53 54 86 80 71 82 82 89 67 97 102 110 119 108 99 97 90 75 69 54 141 152 133 113 89 37 26 29 14 349 345 49 233 116 107 88 87 84 74 63 66 22 350 326 301 282
158 166 279 113 110 98 91 88 96 79 62 67 75 95 109 115 114 113 110 103 95 99 140 131 113 122 99 85 80 110 348 47 3 331 0 24 179 161 75 50 33 77 77 59 40 40 345 309 269
180 175 342 43 42 48 100 94 97 81 73 90 106 113 116 116 117 122 115 120 113 120 113 107 158 339 263 358 79 39 154 126 99 69 117 196 117 72 41 57 110 105 124 91 83 88 135 195 166
340 35 39 64 66 81 56 76 89 85 90 100 107 113 117 122 127 127 126 134 134 131 148 145 148 61 327 3 117 136 129 182 143 129 116 30 33 33 51 110 133 146 139 99 100 130 137 165 175
15 36 50 59 60 53 46 56 65 71 88 101 109 113 120 128 130 139 135 140 148 149 151 155 147 139 98 53 145 129 154 158 165 140 134 110 121 122 119 128 107 176 71 111 108 137 149 183 183
355 38 45 83 67 66 68 65 70 80 93 104 112 120 130 134 143 140 148 153 160 160 158 152 138 144 156 159 162 168 167 167 148 128 112 100 90 100 108 39 59 41 74 73 96 108 144 160 173
293 69 75 82 86 87 72 58 74 91 97 108 119 130 133 143 146 147 152 159 165 168 165 157 149 153 155 159 160 166 181 189 146 133 118 105 98 95 104 76 68 76 64 111 89 142 163 190 160
255 274 333 102 95 105 52 62 94 98 107 117 125 135 141 150 146 149 152 155 162 168 159 152 152 153 154 154 157 164 175 170 163 143 122 105 79 43 60 67 104 76 69 107 105 146 129 78 97
240 244 261 259 184 126 106 89 115 116 118 127 133 142 147 148 151 155 150 154 162 161 156 152 153 146 145 148 158 164 164 155 158 147 107 75 23 2 314 81 86 111 82 79 87 81 62 62 84
217 250 222 205 255 178 121 129 121 129 123 121 127 137 145 149 151 154 156 157 161 160 155 156 153 146 147 152 162 167 164 167 165 159 136 95 76 96 234 37 342 72 65 63 49 62 61 60 71
207 227 206 203 152 174 152 112 132 135 127 123 129 139 147 151 151 149 155 156 162 164 163 163 157 150 157 165 165 166 166 164 164 176 167 114 101 103 102 71 60 33 26 46 50 49 41 42 12
142 134 189 215 214 189 154 137 141 144 136 129 131 135 147 149 141 151 152 159 159 162 166 164 157 159 156 161 161 161 159 158 138 138 128 120 111 106 94 81 96 76 61 50 47 46 34 26 16
161 165 190 193 202 193 136 155 145 156 139 137 137 137 145 137 137 149 152 155 159 160 159 159 159 157 164 163 164 165 170 163 154 147 134 160 136 109 90 77 67 74 59 35 26 37 28 18 12
168 182 192 193 187 193 132 177 167 160 146 145 141 145 147 141 144 152 154 156 159 160 161 156 156 158 158 161 161 165 168 162 158 151 141 126 108 98 89 35 49 38 31 32 30 22 16 12 1
187 182 193 49 186 211 183 219 180 158 145 144 144 146 151 146 148 151 152 159 159 160 157 155 156 156 158 162 163 164 160 158 155 147 136 113 88 84 57 64 352 36 24 30 21 6 3 6 359
211 214 238 247 230 222 203 205 154 163 156 148 146 145 143 145 148 147 153 155 154 152 153 155 156 158 159 159 164 166 171 170 155 140 107 68 64 65 52 44 27 24 30 21 16 13 7 358 352
231 230 218 222 223 213 217 207 206 167 154 148 148 149 144 143 145 149 151 153 156 158 151 151 154 157 157 158 156 161 164 157 148 143 123 75 53 39 36 37 24 24 18 17 13 7 3 356 353
218 217 217 226 213 211 250 221 214 158 152 152 149 149 146 145 147 154 156 154 155 156 154 152 154 153 153 155 158 151 156 160 164 141 94 76 55 37 28 23 23 22 23 16 8 3 358 357 356
223 214 224 232 239 247 254 252 33 137 144 148 150 147 147 148 147 153 158 159 159 158 158 156 154 154 153 151 148 152 147 147 137 136 110 83 66 41 30 23 20 16 12 6 2 2 3 1 357
231 231 227 238 245 246 250 252 271 140 145 147 151 157 155 152 151 151 156 158 159 161 160 158 158 159 153 148 149 152 146 136 129 106 78 52 34 26 20 20 15 11 7 6 7 4 1 360 358
234 225 235 246 251 247 250 253 216 155 149 148 156 160 160 160 158 155 156 156 159 159 160 162 162 161 157 153 148 146 143 134 119 99 70 47 32 32 27 21 15 12 7 6 5 4 359 358 356
242 232 238 246 238 249 265 259 251 253 159 147 144 164 165 165 164 162 158 157 156 159 160 165 162 161 160 157 151 146 136 135 125 97 49 38 32 33 26 20 18 15 7 3 2 3 2 359 357